Weather History for KXNA - October, 2011

Change the Weather History Date:

Friday, October 21, 2011

  Actual Average Record
Temperature  
Mean Temperature 52 °F -  
Max Temperature 69 °F - - ()
Min Temperature 34 °F - - ()
Degree Days  
Heating Degree Days 14    
Growing Degree Days 2 (Base 50)    
Moisture  
Dew Point 37 °F    
Average Humidity 66    
Maximum Humidity 92    
Minimum Humidity 31    
Precipitation  
Precipitation 0.00 in - - ()
Sea Level Pressure  
Sea Level Pressure 30.16 in    
Wind  
Wind Speed 0 mph (SW)    
Max Wind Speed 5 mph    
Max Gust Speed -    
Visibility 10 miles    
Events      
T = Trace of Precipitation, MM = Missing Value Source: NWS Daily Summary

Daily Weather History Graph

Daily Weather History Graph

Search for Another Location

Airport or City:

Trip Planner

Search our weather history database for the weather conditions in past years. The results will help you decide how hot, cold, wet, or windy it might be!

Date:

Astronomy

Oct. 21, 2011 Rise Set
Actual Time 7:29 AM CDT 6:33 PM CDT
Civil Twilight 7:03 AM CDT 6:59 PM CDT
Nautical Twilight 6:33 AM CDT 7:29 PM CDT
Astronomical Twilight 6:03 AM CDT 7:59 PM CDT
Moon 1:30 AM CDT (10/21) 3:09 PM CDT (10/21)
Length of Visible Light 11h 56m
Length of Day
11h 04m
Waning Crescent, 33% of the Moon is Illuminated
Oct 21
Waning Crescent
Oct 26
New
Nov 2
First Quarter
Nov 10
Full
Nov 18
Last Quarter

Hourly Weather History & Observations

Time (CDT) Temp. Dew Point Humidity Pressure Visibility Wind Dir Wind Speed Gust Speed Precip Events Conditions
12:53 AM 36.0 °F 33.1 °F 89% 30.15 in 10.0 mi Calm Calm - N/A   Clear
1:53 AM 35.1 °F 33.1 °F 92% 30.15 in 10.0 mi Calm Calm - N/A   Clear
2:53 AM 34.0 °F 32.0 °F 92% 30.15 in 10.0 mi Calm Calm - N/A   Clear
3:53 AM 35.1 °F 33.1 °F 92% 30.16 in 10.0 mi Calm Calm - N/A   Clear
4:53 AM 34.0 °F 32.0 °F 92% 30.16 in 10.0 mi Calm Calm - N/A   Clear
5:53 AM 35.1 °F 32.0 °F 89% 30.17 in 10.0 mi Calm Calm - N/A   Clear
7:53 AM 35.1 °F 32.0 °F 89% 30.19 in 10.0 mi Calm Calm - N/A   Clear
8:53 AM 39.0 °F 35.1 °F 86% 30.22 in 10.0 mi Calm Calm - N/A   Clear
9:53 AM 46.0 °F 37.0 °F 71% 30.23 in 10.0 mi Calm Calm - N/A   Clear
10:53 AM 54.0 °F 36.0 °F 51% 30.23 in 10.0 mi Variable 3.5 mph - N/A   Clear
11:53 AM 61.0 °F 37.0 °F 41% 30.22 in 10.0 mi Calm Calm - N/A   Clear
12:53 PM 64.0 °F 36.0 °F 35% 30.19 in 10.0 mi Calm Calm - N/A   Clear
1:53 PM 66.0 °F 37.9 °F 36% 30.16 in 10.0 mi Calm Calm - N/A   Clear
2:53 PM 68.0 °F 37.0 °F 32% 30.13 in 10.0 mi WSW 4.6 mph - N/A   Clear
3:53 PM 68.0 °F 36.0 °F 31% 30.13 in 10.0 mi Calm Calm - N/A   Clear
4:53 PM 69.1 °F 37.0 °F 31% 30.12 in 10.0 mi Calm Calm - N/A   Clear
5:53 PM 66.0 °F 39.0 °F 37% 30.12 in 10.0 mi South 3.5 mph - N/A   Clear
6:53 PM 57.0 °F 42.1 °F 57% 30.13 in 10.0 mi Calm Calm - N/A   Clear
7:53 PM 53.1 °F 42.1 °F 66% 30.13 in 10.0 mi Calm Calm - N/A   Clear
8:53 PM 48.9 °F 41.0 °F 74% 30.14 in 10.0 mi Calm Calm - N/A   Clear
9:53 PM 50.0 °F 41.0 °F 71% 30.13 in 10.0 mi Calm Calm - N/A   Clear
10:53 PM 48.9 °F 41.0 °F 74% 30.13 in 10.0 mi Calm Calm - N/A   Clear
11:53 PM 45.0 °F 39.9 °F 82% 30.13 in 10.0 mi Calm Calm - N/A   Clear